Weather History for KNSE - July, 2013

Change the Weather History Date:

Wednesday, July 24, 2013

  Actual Average Record
Temperature  
Mean Temperature 79 °F -  
Max Temperature 89 °F 87 °F 97 °F (2012)
Min Temperature 71 °F 70 °F 68 °F (2007)
Cooling Degree Days 14    
Growing Degree Days 29 (Base 50)    
Moisture  
Dew Point 73 °F    
Average Humidity 79    
Maximum Humidity 94    
Minimum Humidity 59    
Precipitation  
Precipitation 0.90 in - - ()
Sea Level Pressure  
Sea Level Pressure 29.89 in    
Wind  
Wind Speed 7 mph (West)    
Max Wind Speed 15 mph    
Max Gust Speed 29 mph    
Visibility 8 miles    
Events Rain , Thunderstorm    
Averages and records for this station are not official NWS values.
T = Trace of Precipitation, MM = Missing Value Source: NWS Daily Summary

Daily Weather History Graph

Daily Weather History Graph

Search for Another Location

Airport or City:

Trip Planner

Search our weather history database for the weather conditions in past years. The results will help you decide how hot, cold, wet, or windy it might be!

Date:

Astronomy

Jul. 24, 2013 Rise Set
Actual Time 6:01 AM CDT 7:47 PM CDT
Civil Twilight 5:34 AM CDT 8:14 PM CDT
Nautical Twilight 5:02 AM CDT 8:46 PM CDT
Astronomical Twilight 4:28 AM CDT 9:20 PM CDT
Moon 9:09 PM CDT (7/24) 8:07 AM CDT (7/24)
Length of Visible Light 14h 40m
Length of Day
13h 46m
Waning Gibbous, 94% of the Moon is Illuminated
Jul 24
Waning Gibbous
Jul 29
Last Quarter
Aug 6
New
Aug 14
First Quarter
Aug 20
Full

Hourly Weather History & Observations

Time (CDT) Temp. Heat Index Dew Point Humidity Pressure Visibility Wind Dir Wind Speed Gust Speed Precip Events Conditions
12:56 AM 73.0 °F - 69.1 °F 87% 29.90 in 10.0 mi South 3.5 mph - N/A   Mostly Cloudy
1:56 AM 73.9 °F - 70.0 °F 87% 29.88 in 10.0 mi South 5.8 mph - N/A   Clear
2:56 AM 75.0 °F - 72.0 °F 90% 29.85 in 9.0 mi SW 4.6 mph - N/A   Scattered Clouds
3:56 AM 77.0 °F - 73.9 °F 90% 29.85 in 7.0 mi WSW 5.8 mph - N/A   Partly Cloudy
4:56 AM 77.0 °F - 73.9 °F 90% 29.88 in 7.0 mi West 6.9 mph - N/A   Overcast
5:56 AM 77.0 °F - 73.0 °F 88% 29.89 in 7.0 mi West 9.2 mph - N/A   Mostly Cloudy
6:56 AM 77.0 °F - 73.9 °F 90% 29.88 in 6.0 mi WSW 8.1 mph - N/A   Mostly Cloudy
7:06 AM 78.8 °F - 73.4 °F 83% 29.93 in 6.0 mi WSW 6.9 mph - N/A   Mostly Cloudy
7:27 AM 78.8 °F - 73.4 °F 83% 29.93 in 6.0 mi West 9.2 mph - N/A   Mostly Cloudy
7:56 AM 79.0 °F - 73.9 °F 84% 29.90 in 7.0 mi West 6.9 mph - N/A   Mostly Cloudy
8:56 AM 81.0 °F 86.7 °F 75.0 °F 82% 29.90 in 8.0 mi West 10.4 mph - N/A   Mostly Cloudy
9:56 AM 82.0 °F 88.6 °F 75.0 °F 79% 29.91 in 8.0 mi West 10.4 mph - N/A   Mostly Cloudy
10:30 AM 82.4 °F 89.5 °F 75.2 °F 79% 29.95 in 8.0 mi West 9.2 mph - N/A   Mostly Cloudy
10:56 AM 84.0 °F 91.9 °F 75.0 °F 74% 29.90 in 8.0 mi WNW 8.1 mph - N/A   Mostly Cloudy
11:56 AM 86.0 °F 95.1 °F 75.0 °F 70% 29.90 in 9.0 mi West 9.2 mph - N/A   Mostly Cloudy
12:56 PM 87.1 °F 97.3 °F 75.9 °F 69% 29.87 in 9.0 mi WSW 9.2 mph - N/A   Mostly Cloudy
1:21 PM 87.8 °F 97.6 °F 75.2 °F 66% 29.91 in 10.0 mi West 10.4 mph - N/A   Partly Cloudy
1:56 PM 86.0 °F 95.1 °F 75.0 °F 70% 29.86 in 9.0 mi West 10.4 mph - N/A   Mostly Cloudy
2:01 PM 86.0 °F 95.1 °F 75.2 °F 70% 29.91 in 8.0 mi West 9.2 mph - 0.00 in Rain Light Rain
2:10 PM 87.8 °F 97.6 °F 75.2 °F 66% 29.90 in 10.0 mi West 11.5 mph - 0.00 in   Mostly Cloudy
2:56 PM 86.0 °F 92.2 °F 72.0 °F 63% 29.85 in 10.0 mi WNW 15.0 mph 25.3 mph 0.00 in   Mostly Cloudy
3:56 PM 86.0 °F 90.7 °F 70.0 °F 59% 29.84 in 10.0 mi WNW 13.8 mph - N/A   Mostly Cloudy
4:56 PM 84.9 °F 89.4 °F 70.0 °F 61% 29.85 in 10.0 mi WNW 10.4 mph - N/A   Mostly Cloudy
5:56 PM 82.9 °F 88.0 °F 72.0 °F 69% 29.86 in 10.0 mi NNW 3.5 mph - N/A   Mostly Cloudy
6:56 PM 82.0 °F 86.7 °F 72.0 °F 71% 29.86 in 10.0 mi Calm Calm - N/A   Mostly Cloudy
7:56 PM 79.0 °F - 72.0 °F 79% 29.86 in 10.0 mi Calm Calm - N/A   Mostly Cloudy
8:56 PM 77.0 °F - 71.1 °F 82% 29.88 in 10.0 mi Calm Calm - N/A   Mostly Cloudy
9:56 PM 78.1 °F - 72.0 °F 81% 29.88 in 10.0 mi Calm Calm - N/A   Mostly Cloudy
10:56 PM 77.0 °F - 72.0 °F 84% 29.90 in 10.0 mi WNW 11.5 mph 16.1 mph 0.00 in Rain , Thunderstorm Light Thunderstorms and Rain
11:14 PM 73.4 °F - 69.8 °F 88% 29.95 in 1.0 mi NNW 6.9 mph 28.8 mph 0.76 in Rain , Thunderstorm Heavy Thunderstorms and Rain
11:26 PM 71.6 °F - 69.8 °F 94% 29.95 in 3.0 mi NW 5.8 mph - 0.89 in Rain , Thunderstorm Heavy Thunderstorms and Rain
11:45 PM 73.4 °F - 69.8 °F 88% 29.93 in 6.0 mi West 4.6 mph - 0.90 in Rain Rain
11:56 PM 73.0 °F - 70.0 °F 90% 29.88 in 7.0 mi WSW 5.8 mph - 0.90 in Rain Light Rain